AAR1085 RKSS-RJTT

Flight info

Callsign AAR1085
Flight time N/A
Altitude 37000
Route EGOBA2Q EGOBA Y697 LANAT Y71 XAC
Aircraft A321/M-SDE2E3FGHIJ3J7M3P2RWXYZ/LB1D1

Departure

Time 2026-04-30 12:51
Airport Gimpo International Airport (RKSS)

Arrival

Time N/A
Airport Tokyo Haneda International Airport (RJTT)
Time Latitude Longitude Altitude Speed Heading
2026-04-30 12:26 37.55161 126.80646 73 ft 0 kts 225°
2026-04-30 12:46 37.55153 126.80636 73 ft 3 kts 225°
2026-04-30 12:46 37.55136 126.80614 73 ft 4 kts 224°
2026-04-30 12:46 37.55127 126.80589 73 ft 4 kts 279°
2026-04-30 12:46 37.55135 126.80566 73 ft 3 kts 302°
2026-04-30 12:47 37.55144 126.80535 73 ft 4 kts 280°
2026-04-30 12:47 37.55137 126.80506 73 ft 4 kts 223°
2026-04-30 12:47 37.55129 126.80496 73 ft 0 kts 225°
2026-04-30 12:48 37.55122 126.80487 73 ft 3 kts 225°
2026-04-30 12:48 37.55085 126.80440 73 ft 10 kts 225°
2026-04-30 12:49 37.55027 126.80366 73 ft 14 kts 225°
2026-04-30 12:49 37.54957 126.80275 73 ft 16 kts 226°
2026-04-30 12:49 37.54869 126.80160 73 ft 19 kts 226°
2026-04-30 12:49 37.54833 126.80062 73 ft 11 kts 300°
2026-04-30 12:50 37.54931 126.79936 73 ft 41 kts 316°
2026-04-30 12:50 37.55287 126.79491 73 ft 102 kts 315°
2026-04-30 12:50 37.55919 126.78698 75 ft 154 kts 315°
2026-04-30 12:50 37.56708 126.77713 535 ft 160 kts 315°
2026-04-30 12:51 37.57496 126.76717 1275 ft 161 kts 313°
2026-04-30 12:51 37.58297 126.75716 2032 ft 162 kts 313°
2026-04-30 12:51 37.59086 126.74712 2726 ft 161 kts 313°
2026-04-30 12:51 37.59873 126.73703 3323 ft 168 kts 314°
2026-04-30 12:52 37.60767 126.72562 3632 ft 198 kts 315°
2026-04-30 12:52 37.61776 126.71164 3914 ft 231 kts 304°
2026-04-30 12:52 37.62250 126.69190 4278 ft 245 kts 271°
2026-04-30 12:52 37.61761 126.67111 4712 ft 254 kts 240°
2026-04-30 12:53 37.60626 126.65368 4937 ft 259 kts 229°
2026-04-30 12:53 37.59401 126.63716 4979 ft 258 kts 228°
2026-04-30 12:53 37.58169 126.62067 4993 ft 258 kts 228°
2026-04-30 12:53 37.56874 126.60500 4988 ft 259 kts 219°
2026-04-30 12:54 37.55273 126.59474 5059 ft 264 kts 196°
2026-04-30 12:54 37.53466 126.59097 6071 ft 264 kts 189°
2026-04-30 12:54 37.51638 126.58799 7112 ft 267 kts 187°
2026-04-30 12:54 37.49778 126.58524 8113 ft 271 kts 186°
2026-04-30 12:55 37.47913 126.58259 9065 ft 275 kts 186°
2026-04-30 12:55 37.45970 126.57987 10034 ft 279 kts 185°
2026-04-30 12:55 37.44029 126.57720 10998 ft 281 kts 185°
2026-04-30 12:55 37.42079 126.57490 11715 ft 281 kts 181°
2026-04-30 12:56 37.40169 126.57522 11923 ft 275 kts 174°
2026-04-30 12:56 37.38285 126.57891 11974 ft 273 kts 168°
2026-04-30 12:56 37.36431 126.58392 11982 ft 273 kts 164°
2026-04-30 12:56 37.34736 126.59419 11981 ft 273 kts 142°
2026-04-30 12:57 37.33573 126.61288 11997 ft 276 kts 115°
2026-04-30 12:57 37.33255 126.63775 12180 ft 307 kts 89°
2026-04-30 12:57 37.33598 126.66550 12385 ft 337 kts 81°
2026-04-30 12:57 37.34106 126.69545 12645 ft 362 kts 79°
2026-04-30 12:58 37.34667 126.72726 12896 ft 381 kts 79°
2026-04-30 12:58 37.35248 126.76000 12962 ft 385 kts 79°
2026-04-30 12:58 37.35830 126.79289 12979 ft 386 kts 79°
2026-04-30 12:58 37.36411 126.82581 12981 ft 386 kts 79°
2026-04-30 12:59 37.37020 126.85870 13164 ft 390 kts 77°
2026-04-30 12:59 37.37751 126.89170 14114 ft 393 kts 76°
2026-04-30 12:59 37.38514 126.92495 14974 ft 398 kts 76°
2026-04-30 12:59 37.39286 126.95851 15776 ft 403 kts 76°
2026-04-30 13:00 37.40070 126.99273 16539 ft 408 kts 77°
2026-04-30 13:00 37.40859 127.02727 17262 ft 414 kts 77°
2026-04-30 13:00 37.41653 127.06217 17951 ft 419 kts 77°
2026-04-30 13:00 37.42459 127.09764 18615 ft 424 kts 77°
2026-04-30 13:01 37.43275 127.13358 19253 ft 429 kts 77°
2026-04-30 13:01 37.44098 127.16993 19865 ft 434 kts 77°
2026-04-30 13:01 37.44929 127.20666 20452 ft 439 kts 78°
2026-04-30 13:01 37.45766 127.24370 21013 ft 443 kts 78°
2026-04-30 13:02 37.46613 127.28124 21548 ft 448 kts 78°
2026-04-30 13:02 37.47468 127.31912 22062 ft 452 kts 78°
2026-04-30 13:02 37.48320 127.35690 22548 ft 456 kts 78°
2026-04-30 13:02 37.49137 127.39571 22977 ft 460 kts 81°
2026-04-30 13:03 37.49801 127.43512 23407 ft 463 kts 83°
2026-04-30 13:03 37.50434 127.47503 23859 ft 466 kts 83°
2026-04-30 13:03 37.51066 127.51527 24288 ft 469 kts 83°
2026-04-30 13:03 37.51703 127.55576 24686 ft 473 kts 83°
2026-04-30 13:04 37.52346 127.59663 25057 ft 477 kts 83°
2026-04-30 13:04 37.52995 127.63777 25400 ft 481 kts 83°
2026-04-30 13:04 37.53647 127.67920 25729 ft 484 kts 84°
2026-04-30 13:04 37.54301 127.72101 26062 ft 487 kts 84°
2026-04-30 13:05 37.54958 127.76308 26382 ft 491 kts 84°
2026-04-30 13:05 37.55618 127.80528 26680 ft 494 kts 84°
2026-04-30 13:05 37.56286 127.84795 26962 ft 497 kts 84°
2026-04-30 13:06 37.57633 127.93389 27504 ft 503 kts 84°
2026-04-30 13:06 37.58312 127.97716 27793 ft 505 kts 84°
2026-04-30 13:06 37.58993 128.02063 28097 ft 506 kts 84°
2026-04-30 13:06 37.59445 128.04948 28292 ft 507 kts 84°
2026-04-30 13:07 37.60361 128.10796 28697 ft 508 kts 84°
2026-04-30 13:07 37.60812 128.13683 28896 ft 509 kts 84°
2026-04-30 13:07 37.61487 128.18067 29192 ft 509 kts 85°
2026-04-30 13:07 37.62157 128.22453 29490 ft 510 kts 85°
2026-04-30 13:08 37.62828 128.26855 29785 ft 510 kts 85°
2026-04-30 13:08 37.63500 128.31260 30074 ft 511 kts 85°
2026-04-30 13:08 37.64172 128.35663 30365 ft 511 kts 85°
2026-04-30 13:08 37.64842 128.40058 30651 ft 512 kts 85°
2026-04-30 13:09 37.65515 128.44466 30937 ft 512 kts 85°
2026-04-30 13:09 37.66187 128.48879 31219 ft 512 kts 85°
2026-04-30 13:09 37.66859 128.53288 31492 ft 512 kts 85°
2026-04-30 13:09 37.67531 128.57710 31766 ft 512 kts 85°
2026-04-30 13:10 37.68193 128.62133 32027 ft 513 kts 85°
2026-04-30 13:10 37.68845 128.66558 32293 ft 513 kts 85°
2026-04-30 13:10 37.69247 128.71005 32408 ft 507 kts 95°
2026-04-30 13:10 37.68965 128.75390 32483 ft 498 kts 108°
2026-04-30 13:11 37.67985 128.79523 32558 ft 486 kts 120°
2026-04-30 13:11 37.66426 128.83253 32659 ft 478 kts 128°
2026-04-30 13:11 37.64720 128.86835 32920 ft 475 kts 129°
2026-04-30 13:11 37.63007 128.90393 33200 ft 473 kts 129°
2026-04-30 13:12 37.61297 128.93941 33470 ft 472 kts 129°
2026-04-30 13:12 37.59592 128.97478 33731 ft 471 kts 130°
2026-04-30 13:12 37.57893 129.01000 33987 ft 471 kts 130°
2026-04-30 13:13 37.54495 129.08043 34480 ft 470 kts 130°
2026-04-30 13:13 37.52814 129.11530 34718 ft 470 kts 130°
2026-04-30 13:13 37.49414 129.18576 35188 ft 471 kts 130°
2026-04-30 13:14 37.47715 129.22095 35423 ft 471 kts 130°
2026-04-30 13:14 37.46015 129.25616 35656 ft 471 kts 130°
2026-04-30 13:14 37.42600 129.32659 36101 ft 472 kts 130°
2026-04-30 13:15 37.40882 129.36181 36331 ft 472 kts 130°
2026-04-30 13:15 37.37461 129.43197 36833 ft 470 kts 131°
2026-04-30 13:16 37.34032 129.50225 36944 ft 470 kts 131°
2026-04-30 13:16 37.30623 129.57210 36951 ft 470 kts 131°
2026-04-30 13:17 37.25496 129.67703 36951 ft 470 kts 131°
2026-04-30 13:18 37.20368 129.78186 36943 ft 470 kts 131°
2026-04-30 13:18 37.15218 129.88656 36942 ft 469 kts 132°
2026-04-30 13:19 37.11758 129.95619 36941 ft 471 kts 132°
2026-04-30 13:19 37.08296 130.02599 36941 ft 472 kts 132°
2026-04-30 13:20 37.04828 130.09605 36940 ft 473 kts 133°
2026-04-30 13:20 37.01381 130.16549 36939 ft 473 kts 133°
2026-04-30 13:21 36.97910 130.23533 36938 ft 473 kts 133°
2026-04-30 13:22 36.92695 130.34011 36937 ft 473 kts 133°
2026-04-30 13:22 36.87478 130.44469 36936 ft 473 kts 134°
2026-04-30 13:23 36.82254 130.54918 36935 ft 473 kts 134°
2026-04-30 13:24 36.75249 130.68873 36937 ft 474 kts 134°
2026-04-30 13:25 36.68172 130.82733 36936 ft 474 kts 135°
2026-04-30 13:26 36.59373 130.99990 36934 ft 476 kts 135°
2026-04-30 13:28 36.50535 131.17318 36932 ft 476 kts 135°
2026-04-30 13:28 36.45163 131.27822 36941 ft 478 kts 135°
2026-04-30 13:29 36.38055 131.41692 36897 ft 478 kts 136°
2026-04-30 13:30 36.34158 131.53586 36890 ft 507 kts 120°
2026-04-30 13:31 36.31872 131.61856 36887 ft 507 kts 122°
2026-04-30 13:32 36.25985 131.82422 36885 ft 506 kts 122°
2026-04-30 13:33 36.21231 131.98862 36892 ft 506 kts 122°
2026-04-30 13:34 36.17665 132.11119 36890 ft 507 kts 123°
2026-04-30 13:35 36.12868 132.27510 36885 ft 506 kts 123°
2026-04-30 13:36 36.08045 132.43888 36883 ft 508 kts 123°
2026-04-30 13:36 36.04408 132.56188 36882 ft 507 kts 123°
2026-04-30 13:37 36.00758 132.68462 36881 ft 510 kts 123°
2026-04-30 13:38 35.97091 132.80752 36880 ft 510 kts 123°
2026-04-30 13:39 35.92149 132.97221 36890 ft 511 kts 123°
2026-04-30 13:40 35.88412 133.09605 36892 ft 513 kts 122°
2026-04-30 13:40 35.86124 133.17164 36893 ft 515 kts 122°
2026-04-30 13:41 35.83614 133.25439 36895 ft 515 kts 122°
2026-04-30 13:41 35.81108 133.33664 36904 ft 517 kts 122°
2026-04-30 13:42 35.78580 133.41950 36905 ft 517 kts 122°
2026-04-30 13:42 35.74758 133.54415 36905 ft 519 kts 122°
2026-04-30 13:43 35.72204 133.62729 36906 ft 519 kts 122°
2026-04-30 13:43 35.69664 133.70968 36906 ft 519 kts 123°
2026-04-30 13:44 35.67101 133.79252 36905 ft 519 kts 123°
2026-04-30 13:44 35.64524 133.87558 36905 ft 519 kts 123°
2026-04-30 13:45 35.60674 133.99924 36905 ft 519 kts 123°
2026-04-30 13:46 35.58071 134.08247 36904 ft 520 kts 123°
2026-04-30 13:46 35.55468 134.16563 36904 ft 520 kts 123°
2026-04-30 13:47 35.52884 134.24785 36904 ft 519 kts 123°
2026-04-30 13:47 35.50265 134.33096 36905 ft 519 kts 123°
2026-04-30 13:48 35.47662 134.41327 36907 ft 521 kts 122°
2026-04-30 13:48 35.45042 134.49602 36910 ft 520 kts 122°
2026-04-30 13:49 35.42420 134.57852 36913 ft 519 kts 122°
2026-04-30 13:49 35.39791 134.66102 36917 ft 519 kts 122°
2026-04-30 13:50 35.37160 134.74336 36920 ft 518 kts 122°
2026-04-30 13:50 35.33206 134.86665 36925 ft 518 kts 122°
2026-04-30 13:51 35.30568 134.94861 36927 ft 517 kts 122°
2026-04-30 13:51 35.27924 135.03059 36922 ft 517 kts 122°
2026-04-30 13:52 35.25276 135.11243 36924 ft 517 kts 122°
2026-04-30 13:52 35.22629 135.19400 36926 ft 517 kts 122°
2026-04-30 13:53 35.20419 135.26194 36928 ft 516 kts 122°
2026-04-30 13:53 35.17762 135.34343 36932 ft 516 kts 122°
2026-04-30 13:54 35.14667 135.43807 36932 ft 515 kts 122°
2026-04-30 13:54 35.12434 135.50615 36940 ft 515 kts 122°
2026-04-30 13:55 35.09769 135.58724 36942 ft 515 kts 122°
2026-04-30 13:55 35.07084 135.66865 36942 ft 517 kts 122°
2026-04-30 13:56 35.04399 135.74995 36944 ft 516 kts 122°
2026-04-30 13:56 35.01746 135.83065 36944 ft 520 kts 120°
2026-04-30 13:57 35.00016 135.91776 36964 ft 532 kts 110°
2026-04-30 13:57 34.98623 136.00643 36976 ft 532 kts 109°
2026-04-30 13:58 34.96534 136.13917 36985 ft 531 kts 109°
2026-04-30 13:59 34.95128 136.22755 36991 ft 530 kts 109°
2026-04-30 13:59 34.93711 136.31583 36998 ft 530 kts 109°
2026-04-30 14:00 34.92285 136.40397 37004 ft 530 kts 109°
2026-04-30 14:00 34.90129 136.53600 37015 ft 529 kts 109°
2026-04-30 14:01 34.88672 136.62385 37018 ft 529 kts 110°
2026-04-30 14:01 34.87179 136.71132 37021 ft 528 kts 110°
2026-04-30 14:02 34.85680 136.79910 37022 ft 528 kts 109°
2026-04-30 14:02 34.84191 136.88650 37022 ft 528 kts 109°
2026-04-30 14:03 34.82767 136.97408 37021 ft 530 kts 107°
2026-04-30 14:03 34.81736 137.06314 37020 ft 531 kts 105°
2026-04-30 14:04 34.80767 137.15225 37019 ft 531 kts 104°
2026-04-30 14:04 34.79795 137.24127 37022 ft 530 kts 104°
2026-04-30 14:05 34.78816 137.33013 37024 ft 530 kts 104°
2026-04-30 14:05 34.77832 137.41881 37027 ft 529 kts 104°
2026-04-30 14:06 34.76343 137.55168 37033 ft 528 kts 104°
2026-04-30 14:07 34.74850 137.68364 37040 ft 527 kts 104°
2026-04-30 14:08 34.73607 137.80812 37048 ft 528 kts 103°
2026-04-30 14:09 34.73591 137.80982 37048 ft 528 kts 103°
2026-04-30 14:10 34.72322 137.94252 37059 ft 527 kts 103°
2026-04-30 14:10 34.71480 138.03099 37065 ft 528 kts 101°
2026-04-30 14:11 34.71298 138.12087 37076 ft 534 kts 95°
2026-04-30 14:11 34.71374 138.21101 37084 ft 534 kts 94°
2026-04-30 14:12 34.71452 138.30121 36685 ft 530 kts 94°
2026-04-30 14:12 34.71488 138.34598 35857 ft 527 kts 94°
2026-04-30 14:12 34.71518 138.39028 35111 ft 523 kts 94°
2026-04-30 14:12 34.71537 138.41949 34638 ft 519 kts 95°
2026-04-30 14:13 34.71570 138.47786 33650 ft 513 kts 95°
2026-04-30 14:13 34.71589 138.52105 32888 ft 509 kts 95°
2026-04-30 14:13 34.71604 138.56407 32139 ft 508 kts 94°
2026-04-30 14:13 34.71615 138.60641 31428 ft 509 kts 94°
2026-04-30 14:14 34.71624 138.64950 30733 ft 511 kts 94°
2026-04-30 14:14 34.71630 138.69279 29977 ft 513 kts 94°
2026-04-30 14:14 34.71636 138.73641 29177 ft 514 kts 94°
2026-04-30 14:14 34.71639 138.77989 28355 ft 515 kts 93°
2026-04-30 14:15 34.71636 138.82267 27542 ft 515 kts 94°
2026-04-30 14:15 34.71611 138.86634 26661 ft 517 kts 93°
2026-04-30 14:15 34.71581 138.90992 25728 ft 516 kts 93°
2026-04-30 14:15 34.71552 138.95360 24744 ft 514 kts 93°
2026-04-30 14:16 34.71526 138.99680 23771 ft 507 kts 92°
2026-04-30 14:16 34.71498 139.03941 22697 ft 502 kts 92°
2026-04-30 14:16 34.71473 139.08147 21686 ft 495 kts 92°
2026-04-30 14:16 34.71449 139.12320 20705 ft 488 kts 92°
2026-04-30 14:17 34.71427 139.16379 19794 ft 480 kts 92°
2026-04-30 14:17 34.71404 139.20422 18807 ft 474 kts 92°
2026-04-30 14:17 34.71381 139.24400 17821 ft 467 kts 92°
2026-04-30 14:17 34.71358 139.28307 16884 ft 459 kts 92°
2026-04-30 14:18 34.71333 139.32143 16007 ft 449 kts 92°
2026-04-30 14:18 34.71322 139.35903 15159 ft 440 kts 90°
2026-04-30 14:18 34.72291 139.42887 14434 ft 389 kts 71°
2026-04-30 14:19 34.74450 139.48380 14280 ft 335 kts 60°
2026-04-30 14:19 34.75541 139.50787 14117 ft 316 kts 60°
2026-04-30 14:19 34.76599 139.53104 13956 ft 313 kts 60°
2026-04-30 14:20 34.77650 139.55403 13796 ft 309 kts 60°
2026-04-30 14:20 34.78696 139.57690 13638 ft 308 kts 60°
2026-04-30 14:20 34.80771 139.62231 13324 ft 305 kts 60°
2026-04-30 14:21 34.81800 139.64485 13168 ft 305 kts 60°
2026-04-30 14:21 34.82819 139.66716 13055 ft 298 kts 60°
2026-04-30 14:21 34.84811 139.71103 13018 ft 298 kts 60°
2026-04-30 14:22 34.85808 139.73299 12785 ft 295 kts 60°
2026-04-30 14:22 34.88059 139.77395 12066 ft 290 kts 38°
2026-04-30 14:22 34.89733 139.78735 11759 ft 286 kts 30°
2026-04-30 14:23 34.93108 139.81234 11134 ft 282 kts 31°
2026-04-30 14:23 34.96406 139.83788 10486 ft 279 kts 33°
2026-04-30 14:24 34.99647 139.86364 9837 ft 277 kts 34°
2026-04-30 14:24 35.01255 139.87655 9513 ft 276 kts 35°
2026-04-30 14:25 35.04441 139.90228 8872 ft 273 kts 36°
2026-04-30 14:25 35.07670 139.92634 8249 ft 272 kts 23°
2026-04-30 14:26 35.11212 139.93951 7886 ft 258 kts 18°
2026-04-30 14:26 35.12916 139.94555 7659 ft 253 kts 18°
2026-04-30 14:26 35.16255 139.95757 7104 ft 248 kts 19°
2026-04-30 14:27 35.17902 139.96360 6810 ft 246 kts 19°
2026-04-30 14:27 35.19522 139.96985 6515 ft 244 kts 20°
2026-04-30 14:27 35.21119 139.97622 6218 ft 242 kts 20°
2026-04-30 14:28 35.24368 139.98600 5615 ft 241 kts 359°
2026-04-30 14:28 35.25960 139.98015 5288 ft 239 kts 334°
2026-04-30 14:28 35.27413 139.97046 5073 ft 238 kts 331°
2026-04-30 14:28 35.28871 139.96047 5014 ft 240 kts 330°
2026-04-30 14:29 35.31802 139.94010 4847 ft 244 kts 330°
2026-04-30 14:29 35.34243 139.92295 4375 ft 242 kts 330°
2026-04-30 14:30 35.38951 139.88974 3363 ft 224 kts 331°
2026-04-30 14:31 35.41593 139.87109 2780 ft 215 kts 332°
2026-04-30 14:31 35.44072 139.85358 2215 ft 197 kts 332°
2026-04-30 14:31 35.45232 139.84538 1974 ft 188 kts 332°
2026-04-30 14:32 35.47380 139.83018 1471 ft 169 kts 332°
2026-04-30 14:32 35.48363 139.82316 1245 ft 158 kts 333°
2026-04-30 14:32 35.49273 139.81680 1041 ft 144 kts 334°
2026-04-30 14:33 35.50104 139.81099 841 ft 133 kts 332°
2026-04-30 14:33 35.51672 139.79980 500 ft 129 kts 330°
2026-04-30 14:33 35.52445 139.79431 330 ft 128 kts 330°
2026-04-30 14:34 35.53218 139.78875 167 ft 129 kts 330°
2026-04-30 14:34 35.53981 139.78330 47 ft 123 kts 329°
2026-04-30 14:34 35.54695 139.77814 92 ft 131 kts 329°
2026-04-30 14:34 35.55227 139.77426 545 ft 136 kts 327°
2026-04-30 14:35 35.56014 139.75258 2201 ft 174 kts 259°
2026-04-30 14:35 35.54824 139.73805 2773 ft 203 kts 199°
2026-04-30 14:35 35.53389 139.73854 3328 ft 214 kts 158°
2026-04-30 14:36 35.52044 139.74590 4351 ft 211 kts 153°
2026-04-30 14:36 35.50676 139.75259 4847 ft 213 kts 156°
2026-04-30 14:36 35.49214 139.75858 4973 ft 226 kts 160°
2026-04-30 14:36 35.47698 139.76407 4998 ft 227 kts 161°
2026-04-30 14:37 35.46239 139.77155 5004 ft 228 kts 154°
2026-04-30 14:37 35.45278 139.77734 5003 ft 228 kts 153°
2026-04-30 14:37 35.43398 139.78874 5002 ft 228 kts 153°
2026-04-30 14:37 35.41976 139.79736 5002 ft 228 kts 153°
2026-04-30 14:38 35.41039 139.80305 5002 ft 228 kts 153°
2026-04-30 14:38 35.39136 139.81460 5001 ft 228 kts 153°
2026-04-30 14:38 35.38195 139.82031 5001 ft 228 kts 153°
2026-04-30 14:38 35.36775 139.82892 5001 ft 228 kts 153°
2026-04-30 14:39 35.35353 139.83754 5001 ft 228 kts 153°
2026-04-30 14:39 35.33926 139.84620 5001 ft 229 kts 153°
2026-04-30 14:39 35.31721 139.85961 4999 ft 229 kts 153°